Flag for U.S.A. Weather past 2 weeks in New Haven, Connecticut, U.S.A.

Now
16 °F

Clear.


Feels Like: 7 °F
Forecast: 14 / 33 °F
Wind: 6 mph from Northwest

Location: Tweed-New Haven Airport

Current Time: Feb 1, 2015 at 3:48:20 AM

Latest Report: Feb 1, 2015 at 2:53 AM


Visibility: 10 mi

Pressure: 30.17 "Hg

Humidity: 59%

Dew point: 4 °F

Location of New HavenLocation

Historic Weather in New Haven — Graph

°F

New Haven temperature yesterday

Maximum temperature yesterday: 23 °F (at 2:53 PM)
Minimum temperature yesterday: 9 °F (at 6:53 AM)
Average temperature yesterday: 17 °F

Past Weeks' High & Low Weather Summary

 TemperatureHumidityPressure
High47 °F (Jan 18, 4:00 PM)100% (Jan 18, 10:53 AM)30.40 "Hg (Jan 18, 10:53 AM)
Low9 °F (Jan 31, 6:53 AM)25% (Jan 17, 12:53 PM)29.19 "Hg (Jan 24, 3:53 PM)
Average28 °F63%29.96 "Hg
* Reported Jan 17 2:53 AM — Feb 1 2:53 AM, New Haven, Weather by CustomWeather, © 2014

Note: Actual official high and low records may vary slightly from our data, if they occured in-between our weather recording intervals... More about our weather records

Advertising

New Haven weather history for previous 24 hours

 ConditionsComfort  
Time TempWeatherWind HumidityBarometerVisibility
2:53 AM
Feb 1
16 °FClear.6 mph59%30.17 "Hg10 mi
1:53 AM17 °FClear.7 mph59%30.17 "Hg10 mi
12:53 AM17 °FClear.7 mph56%30.15 "Hg10 mi
11:53 PM
Jan 31
17 °FClear.7 mph59%30.17 "Hg10 mi
10:53 PM18 °FClear.8 mph54%30.16 "Hg10 mi
9:53 PM18 °FClear.9 mph52%30.16 "Hg10 mi
8:53 PM18 °FClear.9 mph45%30.15 "Hg10 mi
7:53 PM20 °FClear.10 mph40%30.13 "Hg10 mi
6:53 PM21 °FClear.12 mph31%30.09 "Hg10 mi
5:53 PM22 °FClear.15 mph29%30.09 "Hg10 mi
4:53 PM22 °FSunny.17 mph29%30.06 "Hg10 mi
3:53 PM23 °FSunny.21 mph30%30.04 "Hg10 mi
2:53 PM23 °FSunny.17 mph33%30.03 "Hg10 mi
1:53 PM21 °FSunny.18 mph33%30.01 "Hg10 mi
12:53 PM20 °FSunny.20 mph32%30.02 "Hg10 mi
11:53 AM18 °FSunny.14 mph32%30.03 "Hg10 mi
10:53 AM16 °FSunny.22 mph33%30.03 "Hg10 mi
9:53 AM14 °FSunny.15 mph35%30.01 "Hg10 mi
8:53 AM12 °FSunny.17 mphN/A30.01 "Hg10 mi
7:53 AM10 °FSunny.16 mphN/A30.00 "Hg10 mi
6:53 AM9 °FClear.16 mph43%29.99 "Hg10 mi
5:53 AM10 °FClear.17 mph45%29.98 "Hg10 mi
4:53 AM11 °FClear.22 mph48%29.95 "Hg10 mi
3:53 AM12 °FClear.22 mph48%29.94 "Hg10 mi
Weather by CustomWeather, © 2014

See weather overviewHow to use our weather pages